Location: Unspecified
(0.0000°N, 0.0000°E)
Time: 19:05:07
(UTC+00:00)

Explorer 11/Cluster Stage 4 - Pass Details

Date: 28 November 2019
Orbit: 467 x 1259 km, 28.8° (Epoch: 09 December)

Event Time Altitude Azimuth Distance (km) Brightness Sun altitude
Rises 23:51:05 0° 299° (WNW) 3,568 - -68.8°
Reaches altitude 10° 23:53:31 10° 299° (WNW) 2,734 - -68.7°
Maximum altitude 00:00:23 84° 212° (SSW) 1,134 - -68.6°
Drops below altitude 10° 00:08:29 10° 123° (ESE) 3,189 - -68.2°
Sets 00:11:31 0° 122° (ESE) 4,191 - -68.0°
